When you browse on this site, cookies collect data to enhance your experience and personalize the content and advertising you see.
Visit our Privacy Policy to learn more. By continuing to use the site, you agree to this use of cookies and data.
  • In Latvia
  • List of Countries
  • For 7 days
  • Water Temperature
  • Satellite Maps
  • Weather Map
  • Weather Widgets
  • user-avatar
    Login

    Hourly Weather Wil

    Today, 17 July, Wednesday

    Time Temperature Precipitation Wind Pressure Humidity
    00:00 +14°C° 0 mm 1 mps 711 mmHg 78%
    01:00 +13°C° 0 mm 0 mps 711 mmHg 82%
    02:00 +13°C° 0 mm 0 mps 711 mmHg 82%
    03:00 +14°C° 0 mm 1 mps 711 mmHg 83%
    04:00 +13°C° 0 mm 1 mps 710 mmHg 83%
    05:00 +14°C° 0 mm 0 mps 710 mmHg 81%
    06:00 +15°C° 0 mm 0 mps 711 mmHg 79%
    07:00 +16°C° 0 mm 0 mps 711 mmHg 74%
    08:00 +18°C° 0 mm 0 mps 711 mmHg 69%
    09:00 +22°C° 0 mm 1 mps 711 mmHg 64%
    10:00 +24°C° 0 mm 1 mps 711 mmHg 59%
    11:00 +25°C° 0 mm 1 mps 711 mmHg 54%
    12:00 +26°C° 0 mm 2 mps 711 mmHg 49%
    13:00 +27°C° 0 mm 2 mps 711 mmHg 44%
    14:00 +27°C° 0 mm 2 mps 711 mmHg 45%
    15:00 +27°C° 0 mm 2 mps 711 mmHg 45%
    16:00 +27°C° 0 mm 2 mps 711 mmHg 46%
    17:00 +25°C° 0 mm 2 mps 710 mmHg 54%
    18:00 +24°C° 0 mm 1 mps 710 mmHg 62%
    19:00 +22°C° 0 mm 1 mps 710 mmHg 70%
    20:00 +21°C° 0 mm 1 mps 710 mmHg 72%
    21:00 +19°C° 0 mm 1 mps 710 mmHg 75%
    22:00 +18°C° 0 mm 1 mps 710 mmHg 78%
    23:00 +16°C° 0 mm 1 mps 710 mmHg 80%

    Tomorrow, 18 July, Thursday

    Time Temperature Precipitation Wind Pressure Humidity
    00:00 +15°C° 0 mm 1 mps 710 mmHg 81%
    01:00 +15°C° 0 mm 1 mps 709 mmHg 83%
    02:00 +15°C° 0 mm 1 mps 709 mmHg 83%
    03:00 +14°C° 0 mm 1 mps 709 mmHg 83%
    04:00 +14°C° 0 mm 1 mps 709 mmHg 83%
    05:00 +15°C° 0 mm 1 mps 709 mmHg 81%
    06:00 +15°C° 0 mm 0 mps 709 mmHg 78%
    07:00 +16°C° 0 mm 0 mps 710 mmHg 76%
    08:00 +20°C° 0 mm 1 mps 710 mmHg 70%
    09:00 +20°C° 0 mm 2 mps 710 mmHg 63%
    10:00 +23°C° 0 mm 2 mps 710 mmHg 57%
    11:00 +24°C° 0 mm 2 mps 710 mmHg 53%
    12:00 +25°C° 0 mm 2 mps 710 mmHg 49%
    13:00 +26°C° 0 mm 2 mps 710 mmHg 46%
    14:00 +26°C° 0 mm 2 mps 710 mmHg 47%
    15:00 +26°C° 0 mm 2 mps 710 mmHg 48%
    16:00 +26°C° 0 mm 2 mps 711 mmHg 49%
    17:00 +25°C° 0.1 mm 2 mps 711 mmHg 57%
    18:00 +23°C° 0.1 mm 1 mps 711 mmHg 65%
    19:00 +22°C° 0.1 mm 1 mps 711 mmHg 74%
    20:00 +20°C° 0 mm 1 mps 711 mmHg 76%
    21:00 +19°C° 0 mm 1 mps 711 mmHg 79%
    22:00 +16°C° 0 mm 1 mps 711 mmHg 81%
    23:00 +16°C° 0 mm 1 mps 711 mmHg 82%

    Day after tomorrow, 19 July, Friday

    Time Temperature Precipitation Wind Pressure Humidity
    00:00 +16°C° 0 mm 1 mps 711 mmHg 83%
    01:00 +16°C° 0 mm 1 mps 711 mmHg 84%
    02:00 +15°C° 0 mm 1 mps 711 mmHg 85%
    03:00 +15°C° 0 mm 1 mps 711 mmHg 85%
    04:00 +15°C° 0 mm 1 mps 711 mmHg 86%
    05:00 +16°C° 0 mm 1 mps 711 mmHg 84%
    06:00 +16°C° 0 mm 0 mps 712 mmHg 83%
    07:00 +17°C° 0 mm 0 mps 712 mmHg 81%
    08:00 +18°C° 0.1 mm 0 mps 712 mmHg 76%
    09:00 +22°C° 0.1 mm 1 mps 712 mmHg 71%
    10:00 +24°C° 0.1 mm 1 mps 712 mmHg 66%
    11:00 +25°C° 0.2 mm 1 mps 712 mmHg 62%
    12:00 +26°C° 0.2 mm 2 mps 712 mmHg 58%
    13:00 +26°C° 0.2 mm 2 mps 712 mmHg 54%
    14:00 +26°C° 0.2 mm 2 mps 712 mmHg 55%
    15:00 +26°C° 0.2 mm 1 mps 712 mmHg 55%
    16:00 +27°C° 0.2 mm 1 mps 712 mmHg 55%
    17:00 +25°C° 0.2 mm 1 mps 712 mmHg 63%
    18:00 +24°C° 0.2 mm 1 mps 712 mmHg 70%
    19:00 +23°C° 0.2 mm 1 mps 712 mmHg 78%
    20:00 +21°C° 0 mm 1 mps 712 mmHg 81%
    21:00 +20°C° 0 mm 1 mps 712 mmHg 83%
    22:00 +18°C° 0 mm 1 mps 713 mmHg 86%
    23:00 +18°C° 0 mm 1 mps 712 mmHg 88%

    20 July, Saturday

    Time Temperature Precipitation Wind Pressure Humidity
    00:00 +16°C° 0 mm 1 mps 712 mmHg 89%
    01:00 +16°C° 0 mm 1 mps 712 mmHg 90%
    02:00 +15°C° 0 mm 1 mps 712 mmHg 90%
    03:00 +15°C° 0 mm 1 mps 712 mmHg 91%
    04:00 +15°C° 0 mm 1 mps 712 mmHg 91%
    05:00 +15°C° 0 mm 0 mps 712 mmHg 88%
    06:00 +16°C° 0 mm 0 mps 712 mmHg 86%
    07:00 +18°C° 0 mm 0 mps 712 mmHg 83%
    08:00 +20°C° 0 mm 0 mps 713 mmHg 75%
    09:00 +24°C° 0 mm 1 mps 713 mmHg 67%
    10:00 +26°C° 0 mm 1 mps 713 mmHg 60%
    11:00 +27°C° 0 mm 1 mps 713 mmHg 55%
    12:00 +28°C° 0 mm 2 mps 713 mmHg 51%
    13:00 +29°C° 0 mm 2 mps 714 mmHg 46%
    14:00 +29°C° 0 mm 2 mps 714 mmHg 46%
    15:00 +30°C° 0 mm 3 mps 713 mmHg 46%
    16:00 +30°C° 0 mm 3 mps 713 mmHg 45%
    17:00 +28°C° 0 mm 2 mps 714 mmHg 54%
    18:00 +27°C° 0 mm 2 mps 714 mmHg 62%
    19:00 +25°C° 0 mm 1 mps 714 mmHg 71%
    20:00 +23°C° 0.2 mm 1 mps 714 mmHg 75%
    21:00 +22°C° 0.2 mm 1 mps 714 mmHg 79%
    22:00 +19°C° 0.2 mm 2 mps 714 mmHg 83%
    23:00 +18°C° 0.2 mm 2 mps 714 mmHg 85%

    21 July, Sunday

    Time Temperature Precipitation Wind Pressure Humidity
    00:00 +18°C° 0.2 mm 2 mps 714 mmHg 86%
    01:00 +17°C° 0.2 mm 2 mps 714 mmHg 88%
    02:00 +18°C° 0.1 mm 1 mps 714 mmHg 87%
    03:00 +18°C° 0.1 mm 1 mps 714 mmHg 86%
    04:00 +18°C° 0.1 mm 1 mps 714 mmHg 86%
    05:00 +19°C° 0.1 mm 1 mps 715 mmHg 86%
    06:00 +20°C° 0.1 mm 1 mps 715 mmHg 86%
    07:00 +18°C° 0.1 mm 0 mps 715 mmHg 86%
    08:00 +22°C° 0.3 mm 1 mps 716 mmHg 79%
    09:00 +24°C° 0.3 mm 1 mps 716 mmHg 72%
    10:00 +26°C° 0.3 mm 1 mps 717 mmHg 65%
    11:00 +27°C° 0.3 mm 1 mps 717 mmHg 62%
    12:00 +28°C° 0.3 mm 1 mps 717 mmHg 59%
    13:00 +29°C° 0.3 mm 2 mps 717 mmHg 56%
    14:00 +29°C° 0.1 mm 1 mps 717 mmHg 57%
    15:00 +29°C° 0.1 mm 1 mps 717 mmHg 58%
    16:00 +29°C° 0.1 mm 1 mps 716 mmHg 59%
    17:00 +27°C° 0.1 mm 1 mps 716 mmHg 67%
    18:00 +26°C° 0.1 mm 1 mps 716 mmHg 74%
    19:00 +25°C° 0.1 mm 1 mps 716 mmHg 82%
    20:00 +23°C° 0 mm 1 mps 716 mmHg 84%
    21:00 +22°C° 0 mm 1 mps 716 mmHg 86%
    22:00 +21°C° 0 mm 1 mps 716 mmHg 89%
    23:00 +20°C° 0 mm 1 mps 716 mmHg 89%

    22 July, Monday

    Time Temperature Precipitation Wind Pressure Humidity
    00:00 +20°C° 0 mm 1 mps 716 mmHg 90%
    01:00 +19°C° 0 mm 1 mps 716 mmHg 91%
    02:00 +19°C° 0 mm 1 mps 716 mmHg 91%
    03:00 +16°C° 0 mm 0 mps 716 mmHg 91%
    04:00 +16°C° 0 mm 0 mps 715 mmHg 91%
    05:00 +17°C° 0 mm 0 mps 715 mmHg 89%
    06:00 +18°C° 0 mm 0 mps 716 mmHg 87%
    07:00 +19°C° 0 mm 0 mps 716 mmHg 85%
    08:00 +21°C° 0 mm 0 mps 716 mmHg 77%
    09:00 +26°C° 0 mm 1 mps 716 mmHg 70%
    10:00 +28°C° 0 mm 1 mps 716 mmHg 63%
    11:00 +29°C° 0 mm 1 mps 716 mmHg 59%
    12:00 +30°C° 0 mm 1 mps 716 mmHg 54%
    13:00 +31°C° 0 mm 1 mps 716 mmHg 50%
    14:00 +32°C° 0 mm 1 mps 715 mmHg 50%
    15:00 +32°C° 0 mm 1 mps 715 mmHg 50%
    16:00 +32°C° 0 mm 1 mps 715 mmHg 49%
    17:00 +30°C° 0.1 mm 1 mps 715 mmHg 59%
    18:00 +28°C° 0.1 mm 2 mps 715 mmHg 68%
    19:00 +27°C° 0.1 mm 2 mps 715 mmHg 77%
    20:00 +25°C° 0.1 mm 1 mps 715 mmHg 81%
    21:00 +24°C° 0.1 mm 1 mps 715 mmHg 84%
    22:00 +22°C° 0.1 mm 1 mps 715 mmHg 88%
    23:00 +21°C° 0.1 mm 1 mps 715 mmHg 89%
    Show more